TimeEST,TemperatureF,Dew PointF,Humidity,Sea Level PressureIn,VisibilityMPH,Wind Direction,Wind SpeedMPH,Gust SpeedMPH,PrecipitationIn,Events,Conditions,WindDirDegrees,DateUTC
12:54 AM,39.9,28.0,63,29.79,10.0,West,6.9,-,N/A,,Clear,260,2013-03-01 05:54:00
1:54 AM,37.0,28.0,70,29.79,10.0,WNW,9.2,-,N/A,,Clear,290,2013-03-01 06:54:00
2:54 AM,37.9,28.0,68,29.79,10.0,West,9.2,-,N/A,,Clear,280,2013-03-01 07:54:00
4:54 AM,37.0,28.0,70,29.81,10.0,WSW,6.9,-,N/A,,Clear,250,2013-03-01 09:54:00
5:54 AM,36.0,28.0,73,29.83,10.0,West,9.2,-,N/A,,Clear,270,2013-03-01 10:54:00
6:54 AM,36.0,28.0,73,29.83,10.0,West,6.9,-,N/A,,Clear,260,2013-03-01 11:54:00
7:54 AM,39.9,30.0,68,29.85,10.0,West,10.4,-,N/A,,Clear,270,2013-03-01 12:54:00
8:54 AM,45.0,30.9,58,29.85,10.0,WNW,11.5,-,N/A,,Clear,300,2013-03-01 13:54:00
9:54 AM,48.0,30.9,52,29.84,10.0,WNW,9.2,-,N/A,,Mostly Cloudy,290,2013-03-01 14:54:00
10:54 AM,52.0,30.0,43,29.83,10.0,NNW,9.2,-,N/A,,Mostly Cloudy,330,2013-03-01 15:54:00
11:54 AM,51.1,28.0,41,29.84,10.0,WNW,11.5,20.7,N/A,,Overcast,300,2013-03-01 16:54:00
12:54 PM,51.1,28.0,41,29.82,10.0,West,10.4,19.6,N/A,,Overcast,280,2013-03-01 17:54:00
1:54 PM,53.1,28.0,38,29.80,10.0,WNW,9.2,-,N/A,,Overcast,290,2013-03-01 18:54:00
2:54 PM,51.1,27.0,39,29.80,10.0,WNW,9.2,-,N/A,,Overcast,290,2013-03-01 19:54:00
3:54 PM,50.0,28.0,43,29.81,10.0,WNW,6.9,-,N/A,,Overcast,290,2013-03-01 20:54:00
4:54 PM,48.9,27.0,43,29.82,10.0,WNW,8.1,-,N/A,,Overcast,290,2013-03-01 21:54:00
5:54 PM,48.0,27.0,44,29.84,10.0,NW,8.1,-,N/A,,Overcast,310,2013-03-01 22:54:00
6:54 PM,46.9,30.0,52,29.85,10.0,WNW,5.8,-,N/A,,Overcast,290,2013-03-01 23:54:00
7:54 PM,46.0,30.9,56,29.87,10.0,West,4.6,-,N/A,,Overcast,270,2013-03-02 00:54:00
8:54 PM,46.0,30.0,54,29.88,10.0,WNW,6.9,-,N/A,,Overcast,300,2013-03-02 01:54:00
9:54 PM,45.0,30.9,58,29.88,10.0,WNW,5.8,-,N/A,,Overcast,300,2013-03-02 02:54:00
10:54 PM,45.0,30.9,58,29.88,10.0,WNW,9.2,-,N/A,,Overcast,300,2013-03-02 03:54:00
11:54 PM,44.1,30.9,60,29.87,10.0,WNW,6.9,-,N/A,,Overcast,290,2013-03-02 04:54:00